When you browse on this site, cookies collect data to enhance your experience and personalize the content and advertising you see.
Visit our Privacy Policy to learn more. By continuing to use the site, you agree to this use of cookies and data.
  • In Hungary
  • List of Countries
  • For 7 days
  • Water Temperature
  • Weather Map
  • News
  • Weather Widgets
  • user-avatar
    Login

    Hourly Weather Balucianka

    Today, 10 December, Tuesday

    Time Temperature Precipitation Wind Pressure Humidity
    00:00 +1°C° 0 mm 2 mps 709 mmHg 95%
    01:00 +2°C° 0 mm 1 mps 709 mmHg 96%
    02:00 +2°C° 0 mm 1 mps 709 mmHg 96%
    03:00 +2°C° 0 mm 1 mps 709 mmHg 95%
    04:00 +2°C° 0 mm 1 mps 710 mmHg 95%
    05:00 +3°C° 0.1 mm 1 mps 710 mmHg 95%
    06:00 +3°C° 0.1 mm 1 mps 710 mmHg 94%
    07:00 +3°C° 0 mm 1 mps 711 mmHg 95%
    08:00 +3°C° 0.2 mm 1 mps 712 mmHg 94%
    09:00 +2°C° 0.2 mm 2 mps 712 mmHg 94%
    10:00 +2°C° 0.2 mm 2 mps 713 mmHg 94%
    11:00 +1°C° 0.1 mm 3 mps 713 mmHg 92%
    12:00 +1°C° 0.1 mm 3 mps 714 mmHg 91%
    13:00 +1°C° 0 mm 3 mps 715 mmHg 88%
    14:00 0°C° 0 mm 4 mps 715 mmHg 84%
    15:00 -1°C° 0 mm 4 mps 715 mmHg 80%
    16:00 -1°C° 0 mm 4 mps 716 mmHg 76%
    17:00 -1°C° 0 mm 3 mps 716 mmHg 78%
    18:00 -1°C° 0 mm 3 mps 717 mmHg 79%
    19:00 -2°C° 0 mm 3 mps 717 mmHg 80%
    20:00 -2°C° 0 mm 3 mps 717 mmHg 84%
    21:00 -2°C° 0 mm 3 mps 718 mmHg 88%
    22:00 -4°C° 0 mm 3 mps 718 mmHg 92%
    23:00 -3°C° 0 mm 2 mps 718 mmHg 92%

    Tomorrow, 11 December, Wednesday

    Time Temperature Precipitation Wind Pressure Humidity
    00:00 -3°C° 0 mm 2 mps 718 mmHg 91%
    01:00 -3°C° 0 mm 2 mps 718 mmHg 90%
    02:00 -3°C° 0 mm 2 mps 718 mmHg 89%
    03:00 -3°C° 0 mm 2 mps 718 mmHg 89%
    04:00 -3°C° 0 mm 2 mps 717 mmHg 88%
    05:00 -3°C° 0 mm 2 mps 717 mmHg 88%
    06:00 -2°C° 0 mm 1 mps 717 mmHg 88%
    07:00 -2°C° 0 mm 1 mps 717 mmHg 88%
    08:00 -1°C° 0 mm 1 mps 716 mmHg 85%
    09:00 -3°C° 0 mm 2 mps 716 mmHg 82%
    10:00 -2°C° 0 mm 2 mps 716 mmHg 79%
    11:00 -2°C° 0 mm 2 mps 715 mmHg 78%
    12:00 -1°C° 0 mm 2 mps 715 mmHg 76%
    13:00 -1°C° 0 mm 2 mps 714 mmHg 75%
    14:00 +1°C° 0 mm 1 mps 714 mmHg 80%
    15:00 0°C° 0 mm 1 mps 713 mmHg 85%
    16:00 0°C° 0 mm 1 mps 712 mmHg 90%
    17:00 0°C° 0 mm 1 mps 712 mmHg 91%
    18:00 0°C° 0 mm 1 mps 712 mmHg 91%
    19:00 0°C° 0 mm 1 mps 712 mmHg 92%
    20:00 -2°C° 0 mm 2 mps 712 mmHg 92%
    21:00 -1°C° 0 mm 2 mps 711 mmHg 93%
    22:00 -1°C° 0 mm 2 mps 711 mmHg 93%
    23:00 -1°C° 0 mm 3 mps 711 mmHg 93%

    Day after tomorrow, 12 December, Thursday

    Time Temperature Precipitation Wind Pressure Humidity
    00:00 -1°C° 0 mm 3 mps 710 mmHg 92%
    01:00 -1°C° 0 mm 3 mps 710 mmHg 92%
    02:00 -1°C° 0 mm 3 mps 710 mmHg 93%
    03:00 -1°C° 0 mm 3 mps 709 mmHg 93%
    04:00 -1°C° 0 mm 3 mps 709 mmHg 93%
    05:00 -1°C° 0 mm 3 mps 709 mmHg 93%
    06:00 -1°C° 0 mm 3 mps 709 mmHg 94%
    07:00 0°C° 0 mm 3 mps 709 mmHg 94%
    08:00 0°C° 0 mm 3 mps 709 mmHg 92%
    09:00 +1°C° 0 mm 3 mps 708 mmHg 91%
    10:00 +2°C° 0 mm 2 mps 708 mmHg 89%
    11:00 +2°C° 0 mm 3 mps 708 mmHg 88%
    12:00 +2°C° 0 mm 3 mps 708 mmHg 87%
    13:00 +2°C° 0 mm 3 mps 707 mmHg 85%
    14:00 +2°C° 0 mm 3 mps 707 mmHg 87%
    15:00 +1°C° 0 mm 3 mps 706 mmHg 89%
    16:00 +2°C° 0 mm 2 mps 706 mmHg 91%
    17:00 +1°C° 0.1 mm 3 mps 706 mmHg 92%
    18:00 +1°C° 0.1 mm 3 mps 706 mmHg 93%
    19:00 +1°C° 0.1 mm 3 mps 705 mmHg 94%
    20:00 +1°C° 0.1 mm 3 mps 705 mmHg 93%
    21:00 +1°C° 0.1 mm 3 mps 705 mmHg 93%
    22:00 +1°C° 0.1 mm 3 mps 705 mmHg 93%
    23:00 +1°C° 0.3 mm 3 mps 704 mmHg 93%

    13 December, Friday

    Time Temperature Precipitation Wind Pressure Humidity
    00:00 +1°C° 0.3 mm 3 mps 704 mmHg 94%
    01:00 +1°C° 0.3 mm 3 mps 703 mmHg 94%
    02:00 0°C° 0.3 mm 4 mps 703 mmHg 94%
    03:00 0°C° 0.3 mm 4 mps 702 mmHg 94%
    04:00 0°C° 0.3 mm 5 mps 702 mmHg 93%
    05:00 0°C° 0 mm 5 mps 702 mmHg 91%
    06:00 0°C° 0 mm 5 mps 701 mmHg 89%
    07:00 -1°C° 0 mm 6 mps 701 mmHg 87%
    08:00 -1°C° 0 mm 6 mps 701 mmHg 88%
    09:00 -1°C° 0 mm 6 mps 700 mmHg 89%
    10:00 -1°C° 0 mm 6 mps 700 mmHg 90%
    11:00 -1°C° 0.1 mm 6 mps 699 mmHg 89%
    12:00 -1°C° 0.1 mm 6 mps 699 mmHg 88%
    13:00 0°C° 0.1 mm 7 mps 699 mmHg 87%
    14:00 +1°C° 0 mm 6 mps 698 mmHg 87%
    15:00 +1°C° 0 mm 6 mps 698 mmHg 86%
    16:00 0°C° 0 mm 5 mps 698 mmHg 85%
    17:00 0°C° 0 mm 5 mps 698 mmHg 86%
    18:00 0°C° 0 mm 4 mps 699 mmHg 87%
    19:00 0°C° 0 mm 4 mps 699 mmHg 87%
    20:00 0°C° 0 mm 4 mps 699 mmHg 89%
    21:00 0°C° 0 mm 4 mps 699 mmHg 90%
    22:00 +1°C° 0 mm 4 mps 699 mmHg 91%
    23:00 0°C° 0 mm 4 mps 699 mmHg 90%

    14 December, Saturday

    Time Temperature Precipitation Wind Pressure Humidity
    00:00 0°C° 0 mm 4 mps 700 mmHg 89%
    01:00 0°C° 0 mm 4 mps 700 mmHg 88%
    02:00 0°C° 0 mm 4 mps 700 mmHg 89%
    03:00 +1°C° 0 mm 3 mps 700 mmHg 89%
    04:00 +2°C° 0 mm 2 mps 700 mmHg 90%
    05:00 +2°C° 0 mm 2 mps 701 mmHg 91%
    06:00 +2°C° 0 mm 2 mps 701 mmHg 91%
    07:00 +2°C° 0 mm 2 mps 702 mmHg 92%
    08:00 +2°C° 0 mm 3 mps 702 mmHg 91%
    09:00 +2°C° 0 mm 3 mps 702 mmHg 89%
    10:00 +3°C° 0 mm 4 mps 703 mmHg 88%
    11:00 +3°C° 0 mm 4 mps 703 mmHg 86%
    12:00 +2°C° 0 mm 5 mps 703 mmHg 85%
    13:00 +3°C° 0 mm 6 mps 703 mmHg 83%
    14:00 +2°C° 0 mm 6 mps 703 mmHg 84%
    15:00 +2°C° 0 mm 6 mps 704 mmHg 84%
    16:00 +1°C° 0 mm 6 mps 704 mmHg 85%
    17:00 +1°C° 0 mm 6 mps 705 mmHg 84%
    18:00 +1°C° 0 mm 6 mps 705 mmHg 83%
    19:00 +1°C° 0 mm 6 mps 706 mmHg 83%
    20:00 -1°C° 0 mm 6 mps 706 mmHg 83%
    21:00 -1°C° 0 mm 6 mps 707 mmHg 83%
    22:00 -2°C° 0 mm 6 mps 707 mmHg 83%
    23:00 -1°C° 0 mm 6 mps 708 mmHg 82%

    15 December, Sunday

    Time Temperature Precipitation Wind Pressure Humidity
    00:00 -1°C° 0 mm 6 mps 708 mmHg 80%
    01:00 0°C° 0 mm 5 mps 708 mmHg 79%
    02:00 -1°C° 0 mm 6 mps 709 mmHg 80%
    03:00 -1°C° 0 mm 6 mps 709 mmHg 81%
    04:00 -1°C° 0 mm 6 mps 709 mmHg 83%
    05:00 -1°C° 0 mm 6 mps 710 mmHg 84%
    06:00 -2°C° 0 mm 6 mps 710 mmHg 85%
    07:00 -2°C° 0 mm 6 mps 711 mmHg 86%
    08:00 -1°C° 0 mm 6 mps 711 mmHg 86%
    09:00 -1°C° 0 mm 6 mps 711 mmHg 86%
    10:00 -1°C° 0 mm 6 mps 711 mmHg 85%
    11:00 +1°C° 0 mm 6 mps 711 mmHg 84%
    12:00 0°C° 0 mm 7 mps 711 mmHg 83%
    13:00 0°C° 0 mm 7 mps 710 mmHg 82%
    14:00 0°C° 0 mm 8 mps 710 mmHg 83%
    15:00 0°C° 0 mm 8 mps 710 mmHg 84%
    16:00 0°C° 0 mm 8 mps 711 mmHg 86%
    17:00 0°C° 0 mm 7 mps 711 mmHg 86%
    18:00 0°C° 0 mm 7 mps 712 mmHg 87%
    19:00 0°C° 0 mm 7 mps 712 mmHg 87%
    20:00 +1°C° 0 mm 6 mps 713 mmHg 88%
    21:00 +1°C° 0 mm 5 mps 713 mmHg 88%
    22:00 +1°C° 0 mm 4 mps 714 mmHg 89%
    23:00 +1°C° 0 mm 4 mps 714 mmHg 90%
    Show more